******** Week 361 almanac for PRN-1 ******** ID: 1 Health: 0 Eccentricity: 0.001615047455 Time of Applicability(s): 503808 Orbital Inclination(rad): 0.9581891149 Rate of Right Ascen(r/s): -7.897471818e-09 SQRT(A) (m 1/2): 5153.576172 Right Ascen at Week(rad): 3.00926172 Argument of Perigee(rad): 0.1059045955 Mean Anom(rad): 2.592823761 Af0(s): 0.0002517272217 Af1(s/s): -7.275958e-12 week: 361 ******** Week 361 almanac for PRN-2 ******** ID: 2 Health: 0 Eccentricity: 0.01688575745 Time of Applicability(s): 503808 Orbital Inclination(rad): 0.9633902685 Rate of Right Ascen(r/s): -7.748894201e-09 SQRT(A) (m 1/2): 5153.543945 Right Ascen at Week(rad): 2.846846261 Argument of Perigee(rad): -0.8053717471 Mean Anom(rad): -2.211315698 Af0(s): 4.522045898e-05 Af1(s/s): 7.275958e-12 week: 361 ******** Week 361 almanac for PRN-3 ******** ID: 3 Health: 0 Eccentricity: 0.006533145904 Time of Applicability(s): 503808 Orbital Inclination(rad): 0.9934467046 Rate of Right Ascen(r/s): -7.817468486e-09 SQRT(A) (m 1/2): 5153.57666 Right Ascen at Week(rad): -2.28684328 Argument of Perigee(rad): 1.203671207 Mean Anom(rad): 0.4798551065 Af0(s): 0.0004273333374 Af1(s/s): -1.455192e-11 week: 361 ******** Week 361 almanac for PRN-4 ******** ID: 4 Health: 0 Eccentricity: 0.003735542297 Time of Applicability(s): 503808 Orbital Inclination(rad): 0.9704969139 Rate of Right Ascen(r/s): -7.806039438e-09 SQRT(A) (m 1/2): 5153.683105 Right Ascen at Week(rad): -1.216240786 Argument of Perigee(rad): -2.874438066 Mean Anom(rad): -2.831370507 Af0(s): 3.843739014e-05 Af1(s/s): 3.637979e-12 week: 361 ******** Week 361 almanac for PRN-5 ******** ID: 5 Health: 0 Eccentricity: 0.00541973114 Time of Applicability(s): 503808 Orbital Inclination(rad): 0.9800183806 Rate of Right Ascen(r/s): -7.954617056e-09 SQRT(A) (m 1/2): 5153.663086 Right Ascen at Week(rad): -2.346726204 Argument of Perigee(rad): 1.418007572 Mean Anom(rad): -2.162976953 Af0(s): -0.0001816355103 Af1(s/s): 0 week: 361 ******** Week 361 almanac for PRN-6 ******** ID: 6 Health: 0 Eccentricity: 0.003846645355 Time of Applicability(s): 503808 Orbital Inclination(rad): 0.9870531206 Rate of Right Ascen(r/s): -7.600316584e-09 SQRT(A) (m 1/2): 5153.602051 Right Ascen at Week(rad): 2.96011329 Argument of Perigee(rad): -0.5564811171 Mean Anom(rad): 1.789949976 Af0(s): -0.0004838589111 Af1(s/s): 0 week: 361 ******** Week 361 almanac for PRN-7 ******** ID: 7 Health: 0 Eccentricity: 0.02054977417 Time of Applicability(s): 503808 Orbital Inclination(rad): 0.9513101698 Rate of Right Ascen(r/s): -7.760323248e-09 SQRT(A) (m 1/2): 5153.569336 Right Ascen at Week(rad): -0.2075993576 Argument of Perigee(rad): -1.988836427 Mean Anom(rad): 0.9343074013 Af0(s): -0.0001266172852 Af1(s/s): -3.637979e-12 week: 361 ******** Week 361 almanac for PRN-8 ******** ID: 8 Health: 0 Eccentricity: 0.01158857346 Time of Applicability(s): 503808 Orbital Inclination(rad): 0.9430949837 Rate of Right Ascen(r/s): -8.023191341e-09 SQRT(A) (m 1/2): 5153.634766 Right Ascen at Week(rad): 1.839393517 Argument of Perigee(rad): 0.5269175323 Mean Anom(rad): -2.525434592 Af0(s): 0.0003783445068 Af1(s/s): -7.275958e-12 week: 361 ******** Week 361 almanac for PRN-9 ******** ID: 9 Health: 0 Eccentricity: 0.003344535828 Time of Applicability(s): 503808 Orbital Inclination(rad): 0.9646546043 Rate of Right Ascen(r/s): -7.886042771e-09 SQRT(A) (m 1/2): 5153.724609 Right Ascen at Week(rad): -1.280581094 Argument of Perigee(rad): 2.067477286 Mean Anom(rad): -1.935398394 Af0(s): 0.0006059541504 Af1(s/s): -3.637979e-12 week: 361 ******** Week 361 almanac for PRN-10 ******** ID: 10 Health: 0 Eccentricity: 0.01093482971 Time of Applicability(s): 503808 Orbital Inclination(rad): 0.9929853119 Rate of Right Ascen(r/s): -7.806039438e-09 SQRT(A) (m 1/2): 5153.60498 Right Ascen at Week(rad): -2.289352477 Argument of Perigee(rad): -2.255824735 Mean Anom(rad): -0.5109792621 Af0(s): -0.0004665244019 Af1(s/s): 0 week: 361 ******** Week 361 almanac for PRN-11 ******** ID: 11 Health: 0 Eccentricity: 0.002202510834 Time of Applicability(s): 503808 Orbital Inclination(rad): 0.9639175744 Rate of Right Ascen(r/s): -7.817468486e-09 SQRT(A) (m 1/2): 5153.53418 Right Ascen at Week(rad): 2.978656631 Argument of Perigee(rad): -2.306767803 Mean Anom(rad): 2.893767872 Af0(s): -0.0003225726074 Af1(s/s): 1.455192e-11 week: 361 ******** Week 361 almanac for PRN-12 ******** ID: 12 Health: 0 Eccentricity: 0.009008407593 Time of Applicability(s): 503808 Orbital Inclination(rad): 0.9591178924 Rate of Right Ascen(r/s): -7.908900866e-09 SQRT(A) (m 1/2): 5153.708496 Right Ascen at Week(rad): 0.9099483407 Argument of Perigee(rad): 1.563208066 Mean Anom(rad): 0.2637933882 Af0(s): -0.0004800905395 Af1(s/s): 0 week: 361 ******** Week 361 almanac for PRN-13 ******** ID: 13 Health: 0 Eccentricity: 0.01001691818 Time of Applicability(s): 503808 Orbital Inclination(rad): 0.9761414838 Rate of Right Ascen(r/s): -7.714607058e-09 SQRT(A) (m 1/2): 5153.628418 Right Ascen at Week(rad): -1.105282593 Argument of Perigee(rad): 0.9956509036 Mean Anom(rad): -2.768391158 Af0(s): 0.0005403844849 Af1(s/s): 0 week: 361 ******** Week 361 almanac for PRN-14 ******** ID: 14 Health: 0 Eccentricity: 0.006772518158 Time of Applicability(s): 503808 Orbital Inclination(rad): 0.9424957724 Rate of Right Ascen(r/s): -8.068907531e-09 SQRT(A) (m 1/2): 5153.591309 Right Ascen at Week(rad): 0.8551313724 Argument of Perigee(rad): -2.746140946 Mean Anom(rad): 0.1139553731 Af0(s): 0.0005840975952 Af1(s/s): 0 week: 361 ******** Week 361 almanac for PRN-15 ******** ID: 15 Health: 0 Eccentricity: 0.01661491394 Time of Applicability(s): 503808 Orbital Inclination(rad): 0.9425377172 Rate of Right Ascen(r/s): -8.160339911e-09 SQRT(A) (m 1/2): 5153.647461 Right Ascen at Week(rad): -1.424945314 Argument of Perigee(rad): 1.503793649 Mean Anom(rad): 2.760762075 Af0(s): 0.0003112674927 Af1(s/s): 3.637979e-12 week: 361 ******** Week 361 almanac for PRN-16 ******** ID: 16 Health: 0 Eccentricity: 0.01504278183 Time of Applicability(s): 503808 Orbital Inclination(rad): 0.9582310597 Rate of Right Ascen(r/s): -7.920329913e-09 SQRT(A) (m 1/2): 5153.593262 Right Ascen at Week(rad): 0.9269056444 Argument of Perigee(rad): 0.9308136253 Mean Anom(rad): -1.494368806 Af0(s): 0.0001778671387 Af1(s/s): 7.275958e-12 week: 361 ******** Week 361 almanac for PRN-17 ******** ID: 17 Health: 0 Eccentricity: 0.0126490593 Time of Applicability(s): 503808 Orbital Inclination(rad): 0.9587943183 Rate of Right Ascen(r/s): -7.828897533e-09 SQRT(A) (m 1/2): 5153.546387 Right Ascen at Week(rad): 1.944303422 Argument of Perigee(rad): -1.119573407 Mean Anom(rad): -2.588343908 Af0(s): -6.858436279e-05 Af1(s/s): -1.091394e-11 week: 361 ******** Week 361 almanac for PRN-18 ******** ID: 18 Health: 0 Eccentricity: 0.005764961243 Time of Applicability(s): 503808 Orbital Inclination(rad): 0.9720069262 Rate of Right Ascen(r/s): -7.748894201e-09 SQRT(A) (m 1/2): 5153.592773 Right Ascen at Week(rad): 2.954927117 Argument of Perigee(rad): -2.867137052 Mean Anom(rad): 1.710865327 Af0(s): -0.0003180505615 Af1(s/s): 1.091394e-11 week: 361 ******** Week 361 almanac for PRN-19 ******** ID: 19 Health: 0 Eccentricity: 0.01116752625 Time of Applicability(s): 503808 Orbital Inclination(rad): 0.9579853831 Rate of Right Ascen(r/s): -7.828897533e-09 SQRT(A) (m 1/2): 5153.671387 Right Ascen at Week(rad): 1.98820014 Argument of Perigee(rad): 2.936260188 Mean Anom(rad): -0.7849727237 Af0(s): 0.000547921228 Af1(s/s): 0 week: 361 ******** Week 361 almanac for PRN-20 ******** ID: 20 Health: 0 Eccentricity: 0.002272605896 Time of Applicability(s): 503808 Orbital Inclination(rad): 0.960058654 Rate of Right Ascen(r/s): -7.943188008e-09 SQRT(A) (m 1/2): 5153.70752 Right Ascen at Week(rad): -1.275020788 Argument of Perigee(rad): -1.996391732 Mean Anom(rad): 0.2451807634 Af0(s): 3.919106445e-05 Af1(s/s): 2.182787e-11 week: 361 ******** Week 361 almanac for PRN-21 ******** ID: 21 Health: 0 Eccentricity: 0.000762462616 Time of Applicability(s): 503808 Orbital Inclination(rad): 0.9628569705 Rate of Right Ascen(r/s): -8.137481816e-09 SQRT(A) (m 1/2): 5153.71875 Right Ascen at Week(rad): -2.280926443 Argument of Perigee(rad): -0.300444893 Mean Anom(rad): -0.05280773805 Af0(s): 0.0003225726074 Af1(s/s): 3.637979e-12 week: 361 ******** Week 361 almanac for PRN-22 ******** ID: 22 Health: 0 Eccentricity: 0.01206970215 Time of Applicability(s): 503808 Orbital Inclination(rad): 0.9576797854 Rate of Right Ascen(r/s): -7.920329913e-09 SQRT(A) (m 1/2): 5153.564453 Right Ascen at Week(rad): 0.9302604784 Argument of Perigee(rad): -0.9930851559 Mean Anom(rad): -1.940823877 Af0(s): -2.713227539e-05 Af1(s/s): 7.275958e-12 week: 361 ******** Week 361 almanac for PRN-23 ******** ID: 23 Health: 0 Eccentricity: 0.006048202515 Time of Applicability(s): 503808 Orbital Inclination(rad): 0.9879878902 Rate of Right Ascen(r/s): -7.851755628e-09 SQRT(A) (m 1/2): 5153.659668 Right Ascen at Week(rad): -2.321488176 Argument of Perigee(rad): -2.739446259 Mean Anom(rad): 0.5694094742 Af0(s): 0.0004929030029 Af1(s/s): 3.637979e-12 week: 361 ******** Week 361 almanac for PRN-24 ******** ID: 24 Health: 0 Eccentricity: 0.01791667938 Time of Applicability(s): 503808 Orbital Inclination(rad): 0.9352752769 Rate of Right Ascen(r/s): -7.966046103e-09 SQRT(A) (m 1/2): 5153.594727 Right Ascen at Week(rad): -0.3162625719 Argument of Perigee(rad): 1.136782754 Mean Anom(rad): 1.916110159 Af0(s): -6.632333984e-05 Af1(s/s): 1.818989e-11 week: 361 ******** Week 361 almanac for PRN-25 ******** ID: 25 Health: 0 Eccentricity: 0.01293325424 Time of Applicability(s): 503808 Orbital Inclination(rad): 0.9475411311 Rate of Right Ascen(r/s): -8.011762293e-09 SQRT(A) (m 1/2): 5153.658691 Right Ascen at Week(rad): 0.8159965115 Argument of Perigee(rad): 1.158532998 Mean Anom(rad): 0.1347674777 Af0(s): 0.0003459365112 Af1(s/s): -3.637979e-12 week: 361 ******** Week 361 almanac for PRN-26 ******** ID: 26 Health: 0 Eccentricity: 0.01101350784 Time of Applicability(s): 503808 Orbital Inclination(rad): 0.928354387 Rate of Right Ascen(r/s): -8.206056101e-09 SQRT(A) (m 1/2): 5153.657715 Right Ascen at Week(rad): 0.7412568928 Argument of Perigee(rad): 0.7110356736 Mean Anom(rad): -0.6858890247 Af0(s): -0.0002683080566 Af1(s/s): -3.637979e-12 week: 361 ******** Week 361 almanac for PRN-27 ******** ID: 27 Health: 0 Eccentricity: 0.01437139511 Time of Applicability(s): 503808 Orbital Inclination(rad): 0.9521970025 Rate of Right Ascen(r/s): -7.931758961e-09 SQRT(A) (m 1/2): 5153.613281 Right Ascen at Week(rad): 1.871529591 Argument of Perigee(rad): 0.8839407001 Mean Anom(rad): -2.422783339 Af0(s): -5.351087646e-05 Af1(s/s): -1.091394e-11 week: 361 ******** Week 361 almanac for PRN-28 ******** ID: 28 Health: 0 Eccentricity: 0.000424861908 Time of Applicability(s): 503808 Orbital Inclination(rad): 0.9622397829 Rate of Right Ascen(r/s): -7.657461821e-09 SQRT(A) (m 1/2): 5153.753418 Right Ascen at Week(rad): -0.2332137658 Argument of Perigee(rad): -0.06402422356 Mean Anom(rad): 1.320000955 Af0(s): -0.0004574803101 Af1(s/s): 7.275958e-12 week: 361 ******** Week 361 almanac for PRN-29 ******** ID: 29 Health: 0 Eccentricity: 0.003392219543 Time of Applicability(s): 503808 Orbital Inclination(rad): 0.9614548162 Rate of Right Ascen(r/s): -7.794610391e-09 SQRT(A) (m 1/2): 5153.703125 Right Ascen at Week(rad): 1.96106411 Argument of Perigee(rad): 2.743429141 Mean Anom(rad): -2.564821122 Af0(s): -0.0002841352173 Af1(s/s): 7.275958e-12 week: 361 ******** Week 361 almanac for PRN-30 ******** ID: 30 Health: 0 Eccentricity: 0.008102893829 Time of Applicability(s): 503808 Orbital Inclination(rad): 0.9365695732 Rate of Right Ascen(r/s): -7.920329913e-09 SQRT(A) (m 1/2): 5153.699707 Right Ascen at Week(rad): -0.2167556799 Argument of Perigee(rad): -2.312136735 Mean Anom(rad): 0.7522003627 Af0(s): 0.0001198342163 Af1(s/s): 1.455192e-11 week: 361 ******** Week 361 almanac for PRN-31 ******** ID: 31 Health: 0 Eccentricity: 0.01084375381 Time of Applicability(s): 503808 Orbital Inclination(rad): 0.9550792086 Rate of Right Ascen(r/s): -7.737465153e-09 SQRT(A) (m 1/2): 5153.524414 Right Ascen at Week(rad): -0.1833421628 Argument of Perigee(rad): 0.9373630042 Mean Anom(rad): -0.1582164863 Af0(s): -0.0001281246338 Af1(s/s): 3.637979e-12 week: 361 ******** Week 361 almanac for PRN-32 ******** ID: 32 Health: 0 Eccentricity: 0.009373664856 Time of Applicability(s): 503808 Orbital Inclination(rad): 0.9676985974 Rate of Right Ascen(r/s): -7.851755628e-09 SQRT(A) (m 1/2): 5153.69043 Right Ascen at Week(rad): -1.26353653 Argument of Perigee(rad): -1.994534177 Mean Anom(rad): -1.852988497 Af0(s): -3.994473877e-05 Af1(s/s): 1.818989e-11 week: 361